Regional Weather Roundup
Issued by NWS

Current Version | Previous Version | Text Only | Print | Product List | Glossary On
Versions: 1 2 3 4 5 6 7 8 9 10 11 12 13 14 15 16 17 18 19 20 21 22 23 24 25 26 27 28 29 30 31 32 33 34 35 36 37 38 39 40 41 42 43 44 45 46 47 48 49 50
000
ASHW40 PHFO 271243
RWRHI

WEATHER ROUNDUP FOR HAWAII
NATIONAL WEATHER SERVICE HONOLULU HI
200 AM HST MON MAR 27 2017

THIS IS AN AUTOMATED REPORT THAT HAS NOT BEEN QUALITY CONTROLLED.

NOTE..."FAIR" INDICATES FEW OR NO CLOUDS BELOW 12,000 FEET WITH NO
SIGNIFICANT WEATHER AND/OR OBSTRUCTIONS TO VISIBILITY.

* - THESE SITES REPORT LIMITED FIELDS

HIZ001>004-271300-
KAUAI-NIIHAU-

CITY           SKY/WX    TMP DP  RH WIND       PRES   REMARKS
LIHUE APT      MOCLDY    74  67  78 E13       30.15F
PORT ALLEN*      N/A     73 N/A N/A NE9         N/A
POIPU*           N/A     73 N/A N/A NE6         N/A
PRINCEVILLE*     N/A     72 N/A N/A SE6G12      N/A
KOKOLE POINT*  NOT AVBL
MOLOAA DAIRY*    N/A     72  66  83 E5G12       N/A
WAIMEA HTS*      N/A    N/A N/A N/A NW3         N/A
PUU OPAE*      NOT AVBL
PUU LUA*       NOT AVBL
MAKAHA RIDGE*    N/A     64  61  88 CALM        N/A
$$

HIZ005>011-271300-
OAHU-

CITY           SKY/WX    TMP DP  RH WIND       PRES   REMARKS
HONOLULU       PTCLDY    75  65  70 NE7       30.12S
KALAELOA       CLEAR     72  63  73 CALM      30.13F
KANEOHE MCB    NOT AVBL
WHEELER FIELD  NOT AVBL
BELLOWS*         N/A    N/A N/A N/A E16         N/A
KAHUKU*          N/A    N/A N/A N/A E9G18       N/A
WHEELER*         N/A    N/A N/A N/A N3          N/A
WAIANAE HARBOR   N/A    N/A N/A N/A NE2         N/A
DILLINGHAM*      N/A     88  86  94 CALM        N/A  HX 116
KAHUKU TRN*      N/A     79  73  83 W7G22       N/A
KAWAILOA*        N/A     70  64  83 E6G12       N/A
KII*             N/A     75  68  78 E14G24      N/A
MAKUA RANGE*     N/A    N/A N/A N/A W7          N/A
OAHU FOREST NW   N/A     68  61  77 CALM        N/A
SCHOFIELD BRK*   N/A     64  63  94 MISG        N/A
SCHOFIELD S*   NOT AVBL
WAIANAE VLY*     N/A     70  63  78 NW3G9       N/A
KUAOKALA*        N/A     72   1   6 CALM        N/A
HONOULIUULI*   NOT AVBL
MOKUOLOE IS*   NOT AVBL
PALEHUA*         N/A     64  61  88 NE9G15      N/A
WAIAWA PHB*    NOT AVBL
$$

HIZ012>013-271300-
MOLOKAI-

CITY           SKY/WX    TMP DP  RH WIND       PRES   REMARKS
MOLOKAI AIRPT  PTCLDY    73  62  68 N10       30.12S
KALAUPAPA      NOT AVBL
MAKAPULAPAI*     N/A     75  66  73 E18G26      N/A
MOLOKAI 1*       N/A     63  52  67 NE1G9       N/A
PUU ALII*        N/A     56  55  98 E3G10       N/A
$$

HIZ016-271300-
KAHOOLAWE-

CITY           SKY/WX    TMP DP  RH WIND       PRES   REMARKS
KAHOOLAWE*     NOT AVBL
HAKIOAWA*        N/A     70  60  70 MISG      30.52S
HONOKANAIA*      N/A     76  63  63 NE18G36   30.04F
KANELOA*         N/A     72  63  73 E17G32    30.17F
KEALIALALO*    NOT AVBL
LUA MAKIKA*    NOT AVBL
$$

HIZ014>015-271300-
LANAI-

CITY           SKY/WX    TMP DP  RH WIND       PRES   REMARKS
LANAI CITY     FAIR      67  62  84 NE16      30.15F
LANAI 1*       NOT AVBL
$$

HIZ017>028-271300-
MAUI-

CITY           SKY/WX    TMP DP  RH WIND       PRES   REMARKS
KAHULUI        CLEAR     65  62  90 SE8       30.10S
KAPALUA-W MAUI NOT AVBL
HANA AIRPORT   CLOUDY    73  66  78 E13       30.15S
HANA*            N/A     75 N/A N/A SE6G12      N/A
HALEAKALA SUMM   N/A     45  -6  12 SE23G39     N/A
MAALAEA BAY*     N/A     66 N/A N/A NW5         N/A
HALEAKALA*     NOT AVBL
KAUPO GAP*       N/A     84  72  65 SW7G26      N/A
KULA 1*          N/A    N/A N/A N/A NE3         N/A
$$

HIZ023>026-271300-
BIG ISLAND OF HAWAII COAST AND LOWER SLOPES-

CITY           SKY/WX    TMP DP  RH WIND       PRES   REMARKS
KAILUA KONA    CLOUDY    74  63  68 E3        30.06F
HILO           PTCLDY    68  61  78 SW9       30.13F
HONOKAA*         N/A     63 N/A N/A VRB1        N/A
KAWAIHAE MWT*    N/A     75 N/A N/A NE7         N/A
KAWAIHAE*        N/A     75 N/A N/A E1        30.07S
SOUTH POINT*     N/A     68 N/A N/A N16G24      N/A
UPOLU AIRPORT* NOT AVBL
KAMUELA*       PTSUNNY   57  54  88 E3        30.17S
HAKALAU*         N/A    N/A N/A N/A S8G14       N/A
KALOKO-HONOKO*   N/A     72  61  68 NE3       30.05F
PALI 2*          N/A     61  55  82 S10         N/A
KEALAKOMO*       N/A    N/A N/A N/A VRB10G17    N/A
KAUPULEHU*       N/A     66  59  77 SE8         N/A
KAPAPALA*        N/A     62  50  64 VRB7G13     N/A
LOWER KAHUKU*    N/A     61  52  72 VRB3G15     N/A
PUHE CS*         N/A     73  59  60 E3G10       N/A
PUHO CS*         N/A     72  61  68 E2          N/A
PTA KEAMUKU*     N/A     55  52  88 CALM        N/A
WAIKOLOA*        N/A     64  57  77 SE7         N/A
$$

HIZ027>028-271300-
BIG ISLAND OF HAWAII INTERIOR AND SUMMMITS-

CITY           SKY/WX    TMP DP  RH WIND       PRES   REMARKS
BRADSHAW FIELD NOT AVBL
MK VISITOR CEN   N/A     52 -13   6 E5          N/A
MAUNA KEA*       N/A     36  -9  14 E1          N/A
MAUNA LOA*       N/A     41  -8  12 MISG        N/A
MAUNA LOA 1*   NOT AVBL
PTA KIPUKA*      N/A     46  45  93 E3          N/A
PTA RANGE 17*    N/A    N/A N/A N/A E18G28      N/A
PTA WEST*      NOT AVBL
NENE CABIN*      N/A    N/A N/A N/A NE9G18      N/A
AHUMOA*          N/A    N/A N/A N/A E8          N/A
PTA PORTABLE*  NOT AVBL
PUU MALI*        N/A    N/A N/A N/A SE1G7       N/A
$$

HIC003-271300-
NORTHWEST ISLANDS-

CITY           SKY/WX    TMP DP  RH WIND       PRES   REMARKS
MIDWAY ISLAND  CLOUDY    66  61  82 NE7       30.07F
MIDWAY NOS*      N/A     66 N/A N/A MISG      30.05S
FRENCH FRIGATE NOT AVBL
$$

PHZ110>124-180-271300-
BUOY REPORTS

STATION/POSITION TIME  TEMP    WIND        PRES    WAVE   SWELL
                       AIR SEA DIR/SP/G            HT/PER HT/DIR
                 (UTC) (F)     (DEG/KT/KT) (MB)    (FT/S) (FT/D)
BUOY 51001       1220   75 76  130/ 10/ 14 1020.4
BUOY 51101       1150   75 76  130/  8/ 12 1021.5F  10/15  10/290
BUOY 51100       NOT AVBL
BUOY 51002       1220   77 78   90/ 19/ 27 1016.4
BUOY 51003       1150   77 78   90/ 14/ 16 1018.5S  10/15   8/290
BUOY 51004       1150      77   70/ 19/ 23 1018.0F  12/10  10/ 90
BARBERS PT BUOY  NOT AVBL
WAIMEA BAY BUOY  1202      75                N/A     8/15   8/310
KAILUA BAY BUOY  1204      77                N/A     7/ 8   2/ 90
LANAI BUOY       1215      78                N/A     6/15   5/280
BARBERS PT 2     NOT AVBL
PAUWELA MAUI     1209      76                N/A     7/17   5/310
HILO             1212      77                N/A     8/10   3/110
KANEOHE BAY BUOY 1225      76                N/A     6/ 8   2/350
HANALEI KAUAI    1152      78                N/A    10/15  10/310
KAHULUI HARBOR   1218   69 77  100/  2/  3 1019.3
HONOLULU HARBOR  1218   76 78   30/  2/  4 1020.5
KILO NALU        NOT AVBL
HILO HARBOR      1218   69 76  200/  6/  9 1019.8
MOKUOLOE         1136   76 79   90/  8/ 11 1020.5S
NAWILIWILI       1218   75      60/  7/ 10 1020.4
WHOTS BUOY       NOT AVBL
BUOY 51028       NOT AVBL
$$

......................KEY........................................
  SKY/WX - SKY CONDITIONS/PRESENT WEATHER
  TMP    - TEMPERATURE IN FAHRENHEIT
  DWPT   - DEWPOINT IN FAHRENHEIT
  RH     - RELATIVE HUMIDITY IN PERCENT
  WIND   - DIRECTION AND SPEED /MPH FOR ISLANDS...KTS FOR BUOYS/
  PRES   - MEAN SEA LEVEL PRESSURE IN INCHES OF HG
  VSB    - VISIBILITY IN MILES
  HX     - HEAT INDEX
  WCI    - WIND CHILL INDEX
  VRB    - VARIABLE WIND DIRECTION
  N/A    - NOT AVAILABLE




USA.gov is the U.S. government's official web portal to all federal, state and local government web resources and services.